This demonstration page uses our WeatherBlox Daily Observations layout. Learn more.

Left ArrowRight Arrow

Hourly Observations for May 21, 2022

Temp ( °F °C ) Dew Point ( °F °C ) Humidity (%) Winds ( mph kmh ) Pressure ( in mb ) Visibility ( mi km ) Precip ( " mm )
12:59 am 00:59 Clear 81 27.2 68 20 65 65 SSW 12 19 30.02 1017 9 14 0.00 0.00
1:59 am 01:59 Clear 80 26.7 68 20 67 67 SSW 12 19 30.01 1016 9 14 0.00 0.00
2:59 am 02:59 Clear 79 26.1 68 20 69 69 SSW 10 17 30.03 1017 9 14 0.00 0.00
3:59 am 03:59 Clear 78 25.6 67 19.4 69 69 SSW 10 17 30.03 1017 10 16 0.00 0.00
4:59 am 04:59 Clear 77 25 66 18.9 69 69 SW 8 13 30.05 1018 10 16 0.00 0.00
5:59 am 05:59 Mostly Sunny 76 24.4 67 19.4 74 74 SW 10 17 30.06 1018 9 14 0.00 0.00
6:59 am 06:59 Mostly Sunny 76 24.4 68 20 77 77 SW 12 19 30.08 1019 9 14 0.00 0.00
7:59 am 07:59 Mostly Cloudy 78 25.6 70 21.1 76 76 SW 13 20 30.10 1019 9 14 0.00 0.00
8:59 am 08:59 Partly Cloudy 82 27.8 71 21.7 69 69 SW 9 15 30.11 1020 10 16 0.00 0.00
9:59 am 09:59 Partly Cloudy 84 28.9 71 21.7 65 65 W 9 15 30.12 1020 10 16 0.00 0.00
10:59 am 10:59 Partly Cloudy 87 30.6 71 21.7 59 59 WSW 8 13 30.13 1020 10 16 0.00 0.00
11:59 am 11:59 Mostly Sunny 89 31.7 70 21.1 53 53 W 7 11 30.13 1020 10 16 0.00 0.00
12:59 pm 12:59 Partly Cloudy 92 33.3 68 20 46 46 W 8 13 30.12 1020 10 16 0.00 0.00
1:59 pm 13:59 Mostly Cloudy 92 33.3 68 20 46 46 SW 10 17 30.11 1020 10 16 0.00 0.00
2:59 pm 14:59 Mostly Cloudy 93 33.9 68 20 44 44 SSW 10 17 30.10 1019 10 16 0.00 0.00
3:59 pm 15:59 Mostly Cloudy 93 33.9 69 20.6 46 46 SW 6 9 30.08 1019 10 16 0.00 0.00
4:59 pm 16:59 Mostly Cloudy 93 33.9 69 20.6 46 46 S 6 9 30.07 1018 10 16 0.00 0.00
5:59 pm 17:59 Mostly Cloudy 92 33.3 67 19.4 44 44 SW 6 9 30.07 1018 10 16 0.00 0.00
6:59 pm 18:59 Cloudy 90 32.2 69 20.6 50 50 S 9 15 30.06 1018 10 16 0.00 0.00
7:59 pm 19:59 Cloudy 88 31.1 71 21.7 57 57 S 12 19 30.09 1019 10 16 0.00 0.00
8:14 pm 20:14 Cloudy with Thunderstorms 87 30.6 71 21.7 59 59 S 20 31 30.11 1020 10 16 0.00 0.00
8:24 pm 20:24 Cloudy with Thunderstorms 85 29.4 71 21.7 63 63 SW 22 35 30.13 1020 10 16 0.00 0.00
8:59 pm 20:59 Cloudy with Thunderstorms 76 24.4 67 19.4 74 74 SW 9 15 30.14 1021 10 16 0.00 0.00
9:59 pm 21:59 Cloudy with Thunderstorms 74 23.3 66 18.9 76 76 SSW 3 6 30.16 1021 9 14 0.01 0.25
10:17 pm 22:17 Cloudy with Light Rain 74 23.3 66 18.9 76 76 SSW 6 9 30.17 1022 7 11 0.01 0.25
10:59 pm 22:59 Cloudy 73 22.8 67 19.4 81 81 WSW 5 7 30.16 1021 10 16 0.03 0.76
11:59 pm 23:59 Cloudy 75 23.9 66 18.9 74 74 SW 10 17 30.16 1022 10 16 0.00 0.00

Powered by AerisWeather